Weather Roundup
Issued by NWS Chicago, IL

Home | Current Version | Previous Version | Text Only | Print | Product List | Glossary Off
Versions: 1 2 3 4 5 6 7 8 9 10 11 12 13 14 15 16 17 18 19 20 21 22 23 24 25 26 27 28 29 30 31 32 33 34 35 36 37 38 39 40 41 42 43 44 45 46 47 48 49 50

000
NZUS59 KLOT 072303
HRRLOT

CHICAGO AREA WEATHER ROUNDUP
NATIONAL WEATHER SERVICE CHICAGO/ROMEOVILLE IL
500 PM CST SUN FEB 07 2016

NOTE: "FAIR" INDICATES FEW OR NO CLOUDS BELOW 12,000 FEET WITH NO
SIGNIFICANT WEATHER AND/OR OBSTRUCTIONS TO VISIBILITY.

* THESE STATIONS ARE NOT UNDER NWS QUALITY CONTROL. THEY ALSO MAY NOT
  REPORT WEATHER SUCH AS PRECIPITATION OR FOG.

ILZ005-006-012>014-019>023-080000-
NORTHEAST ILLINOIS

CITY           SKY/WX    TMP DP  RH WIND       PRES   REMARKS
OHARE          PTCLDY    42  33  70 SW14      29.73R
MIDWAY         PTCLDY    43  31  62 SW14      29.75R
AURORA         CLEAR     41  31  67 W15       29.76R
LANSING*       MOCLDY    42  32  68 SW12G22   29.76S
WAUKEGAN       CLEAR     41  33  73 SW12G18   29.70R
DUPAGE AIRPORT CLEAR     41  30  65 W14G24    29.75R
WHEELING       PTCLDY    42  33  70 SW10      29.74R
$$

WIZ051-052-058>065-066-070>072-080000-
SOUTHEAST WISCONSIN

CITY           SKY/WX    TMP DP  RH WIND       PRES   REMARKS
MILWAUKEE      PTCLDY    42  28  57 W18G24    29.68R
KENOSHA*       CLEAR     40  31  70 W14G23    29.69R
RACINE*        CLEAR     42  30  62 SW10      29.70R
BURLINGTON     CLEAR     38  29  68 W9G17     29.70R
WAUKESHA       PTCLDY   N/A N/A N/A SW13      29.68R
$$

INZ001>003-010>013-019-020-080000-
NORTHWEST INDIANA

CITY           SKY/WX    TMP DP  RH WIND       PRES   REMARKS
GARY*          MOCLDY    45  30  57 SW14G28   29.77R
MICHIGAN CITY* NOT AVBL
RENSSELAER*    NOT AVBL
VALPARAISO     CLOUDY    43  32  65 SW14      29.77R
$$

LMZ740>746-080000-
SOUTHERN LAKE MICHIGAN

STATION/POSITION TIME  SKY/WX   TEMP WIND        PRES    VSBY
                                AIR  DIR/SP/G
                 (UTC)          (F)  (DEG/KT/KT) (MB)    (MI)
HARRISON CRIB    2200            44  230/ 19/ 22   N/A
BURNHAM HARBOR   2300            43  250/  7/ 15   N/A
CALUMET HARBOR   2200            43  210/ 11/ 15 1006.6R
BURNS HARBOR     2220            44  230/ 13/ 17 1008.1R
MICHIGAN CITY    2200            42  210/ 16/ 19   N/A
$$

ABBREVIATIONS USED IN REMARKS
   TC - TEMPERATURE IN CELSIUS
  WCI - WIND CHILL INDEX
   HX - HEAT INDEX
  VSB - VISIBILITY
$$



USA.gov is the U.S. government's official web portal to all federal, state and local government web resources and services.